Home > Weather > Târgu Mureş > Past weeks

Flag for Romania Past Weather in Târgu Mureş, Romania — Yesterday and Last 2 Weeks

Now
81 °F

Scattered clouds.


Feels Like: 83 °F
Forecast: 62 / 86 °F
Wind: 15 mph from Northwest

Location: Tirgu Mures Airport

Current Time: Jul 29, 2016 at 3:25:33 PM

Latest Report: Jul 29, 2016 at 3:00 PM


Visibility: N/A

Pressure: 29.95 "Hg

Humidity: 66%

Dew Point: 68 °F

Location of Târgu MureşLocation

Past Weather in Târgu Mureş — Graph

°F

Târgu Mureş Temperature Yesterday

Maximum temperature yesterday: 88 °F (at 3:00 PM)
Minimum temperature yesterday: 59 °F (at 6:00 AM)
Average temperature yesterday: 75 °F

High & Low Weather Summary for the Past Weeks

 TemperatureHumidityPressure
High93 °F (Jul 14, 2:30 PM)100% (Jul 16, 1:00 AM)30.07 "Hg (Jul 16, 1:00 AM)
Low48 °F (Jul 21, 5:30 AM)35% (Jul 25, 5:30 PM)29.68 "Hg (Jul 14, 6:00 PM)
Average71 °F73%29.99 "Hg
* Reported Jul 14 2:00 PM — Jul 29 2:00 PM, Târgu Mureş, Weather by CustomWeather, © 2016

Note: Actual official high and low records may vary slightly from our data, if they occured in-between our weather recording intervals... More about our weather records

Advertising

Târgu Mureş Weather History for the Previous 24 Hours

Scroll right to see more
 ConditionsComfort  
Time TempWeatherWind HumidityBarometerVisibility
2:00 PM
Fri, Jul 29
82 °FPassing clouds.6 mph62%29.95 "HgN/A
1:30 PM82 °FPassing clouds.6 mph62%29.95 "HgN/A
1:00 PM81 °FPassing clouds.5 mph66%29.98 "HgN/A
12:30 PM81 °FPassing clouds.5 mph66%29.98 "HgN/A
12:00 PM79 °FPassing clouds.5 mph70%29.98 "HgN/A
11:30 AM81 °FSunny.2 mph66%29.98 "Hg10 mi
11:00 AM79 °FSunny.1 mph65%29.98 "Hg10 mi
10:30 AM75 °FSunny.No wind74%29.98 "Hg10 mi
10:00 AM75 °FClear.No wind74%29.98 "Hg6 mi
9:30 AM73 °FClear.No wind78%29.98 "Hg5 mi
9:00 AM72 °FClear.No wind83%29.98 "Hg5 mi
8:30 AM70 °FClear.No wind88%29.98 "Hg4 mi
8:00 AM68 °FFog.No wind94%29.98 "Hg3 mi
7:30 AM66 °FFog.No wind94%29.98 "Hg3 mi
7:00 AM64 °FFog.1 mph94%29.98 "Hg3 mi
6:30 AM63 °FLight fog.3 mph100%29.98 "Hg3 mi
6:00 AM63 °FLight fog.5 mph100%29.98 "Hg3 mi
5:00 AM64 °FClear.No wind100%29.98 "Hg5 mi
4:00 AM64 °FClear.No wind100%29.98 "Hg5 mi
3:00 AM66 °FClear.No wind94%29.98 "Hg10 mi
1:00 AM66 °FClear.No wind94%29.98 "Hg10 mi
12:00 AM68 °FClear.No wind94%29.98 "Hg10 mi
11:00 PM
Thu, Jul 28
70 °FClear.No wind88%29.98 "Hg10 mi
10:00 PM72 °FClear.3 mph88%29.98 "Hg10 mi
9:00 PM72 °FSunny.5 mph83%29.98 "Hg10 mi
8:30 PM75 °FSunny.7 mph74%29.95 "Hg10 mi
8:00 PM79 °FPassing clouds.7 mph70%29.95 "HgN/A
7:30 PM82 °FPassing clouds.5 mph58%29.95 "HgN/A
7:00 PM86 °FPassing clouds.5 mph49%29.95 "HgN/A
6:30 PM88 °FPassing clouds.3 mph49%29.95 "HgN/A
6:00 PM88 °FPassing clouds.5 mph43%29.95 "HgN/A
5:30 PM88 °FPassing clouds.3 mph40%29.95 "HgN/A
5:00 PM88 °FPassing clouds.6 mph43%29.98 "HgN/A
4:30 PM88 °FPassing clouds.5 mph43%29.98 "HgN/A
4:00 PM88 °FPassing clouds.3 mph43%29.98 "HgN/A
3:30 PM88 °FPassing clouds.5 mph46%29.98 "HgN/A
3:00 PM88 °FSunny.2 mph46%29.98 "Hg10 mi
Weather by CustomWeather, © 2016

See weather overviewHow to use our weather pages